1485450000.38,29228,9.38,73916.0,-9.15,-34.25,-33.43,0,*59
1485450001.65,29229,9.38,73918.3,-9.15,-34.25,-33.43,0,*58
1485450002.89,29230,9.38,73916.8,-9.13,-34.19,-33.21,0,*5D
1485450004.13,29231,9.38,73916.3,-9.13,-34.01,-33.21,0,*55
1485450005.4,29232,9.38,73916.5,-9.11,-34.01,-33.03,0,*54
1485450006.62,29233,9.44,73922.3,-9.13,-33.83,-32.91,0,*50
1485450007.9,29234,9.44,73920.8,-9.13,-33.73,-32.79,0,*5E
1485450009.16,29235,9.38,73916.5,-9.11,-33.83,-32.97,0,*52
1485450010.38,29236,9.38,73920.3,-9.13,-34.25,-33.37,0,*53
1485450011.62,29237,9.38,73918.3,-9.13,-34.25,-33.49,0,*5B
1485450012.89,29238,9.38,73918.5,-9.11,-33.67,-32.79,0,*55
1485450014.16,29239,9.44,73920.0,-9.11,-33.73,-32.91,0,*57
1485450015.43,29240,9.44,73920.0,-9.11,-33.67,-32.79,0,*5A
1485450016.68,29241,9.38,73918.3,-9.11,-33.83,-32.91,0,*57
1485450017.95,29242,9.38,73918.0,-9.11,-33.73,-32.91,0,*5B
1485450019.22,29243,9.38,73918.5,-9.11,-34.19,-33.21,0,*5B
1485450020.49,29244,9.38,73916.5,-9.11,-34.01,-33.03,0,*55
1485450021.74,29245,9.38,73918.8,-9.11,-34.07,-33.21,0,*52
1485450023.01,29246,9.38,73916.0,-9.11,-34.07,-33.31,0,*50
1485450024.28,29247,9.38,73916.0,-9.11,-34.25,-33.49,0,*5E
1485450025.55,29248,9.38,73916.8,-9.09,-34.19,-33.43,0,*5D
1485450026.77,29249,9.38,73912.3,-9.09,-33.83,-33.15,0,*5B
1485450028.05,29250,9.44,73916.5,-9.07,-34.19,-33.49,0,*50
1485450029.32,29251,9.38,73916.8,-9.11,-34.25,-33.31,0,*56
1485450030.59,29252,9.38,73918.0,-9.11,-34.01,-33.21,0,*52
1485450031.85,29253,9.38,73920.3,-9.07,-34.01,-33.15,0,*53
1485450033.11,29254,9.38,73918.8,-9.09,-33.49,-32.69,0,*5B
1485450034.35,29255,9.44,73916.3,-9.09,-33.83,-32.85,0,*5E
1485450035.6,29256,9.38,73914.0,-9.09,-34.13,-33.27,0,*5A
1485450036.85,29257,9.38,73912.3,-9.09,-33.77,-32.91,0,*52
1485450038.09,29258,9.38,73914.8,-9.09,-33.61,-32.69,0,*5D
1485450039.33,29259,9.38,73914.3,-9.09,-33.31,-32.57,0,*54
1485450040.59,29260,9.38,73914.5,-9.07,-33.49,-32.57,0,*5F
1485450041.86,29261,9.38,73914.8,-9.07,-33.67,-32.75,0,*52
1485450043.14,29262,9.38,73916.0,-9.07,-33.77,-32.97,0,*5C
1485450044.43,29263,9.44,73918.8,-9.07,-33.61,-32.75,0,*56
1485450045.69,29264,9.38,73918.0,-9.03,-33.95,-33.09,0,*54
1485450046.98,29265,9.38,73916.3,-9.07,-33.77,-32.85,0,*58
1485450048.24,29266,9.38,73916.5,-9.05,-33.61,-32.79,0,*5D
1485450049.5,29267,9.38,73916.5,-9.05,-33.43,-32.63,0,*57
1485450050.74,29268,9.38,73918.8,-9.05,-33.55,-32.63,0,*5F
1485450052.01,29269,9.38,73918.8,-9.05,-33.77,-32.85,0,*56
1485450053.3,29270,9.38,73918.8,-9.03,-33.89,-33.27,0,*50
1485450054.54,29271,9.44,73918.3,-9.03,-34.07,-33.21,0,*56
1485450055.78,29272,9.38,73916.5,-9.05,-33.95,-33.09,0,*55
1485450057.02,29273,9.38,73918.5,-9.05,-33.95,-33.27,0,*58
1485450058.26,29274,9.44,73924.8,-9.03,-33.95,-32.91,0,*55
1485450059.5,29275,9.44,73920.3,-9.05,-34.19,-33.37,0,*5C
1485450060.74,29276,9.44,73920.0,-9.05,-33.95,-33.09,0,*51
1485450061.98,29277,9.38,73918.3,-9.03,-33.95,-33.21,0,*5C
1485450063.24,29278,9.38,73920.3,-9.03,-33.89,-32.91,0,*54
1485450064.51,29279,9.44,73922.3,-9.03,-34.07,-33.27,0,*58
1485450065.77,29280,9.38,73920.0,-9.05,-33.89,-33.09,0,*55
1485450067.04,29281,9.44,73924.0,-9.03,-34.13,-33.27,0,*5A
1485450068.34,29282,9.44,73920.8,-9.03,-34.19,-33.43,0,*51
1485450069.58,29283,9.44,73920.3,-9.05,-34.19,-33.37,0,*55
1485450070.85,29284,9.44,73922.0,-9.03,-34.31,-33.55,0,*5A
1485450072.13,29285,9.38,73918.5,-9.03,-34.31,-33.73,0,*5F
1485450073.4,29286,9.44,73920.8,-9.05,-34.31,-33.61,0,*59
1485450074.69,29287,9.38,73922.3,-9.03,-34.19,-33.43,0,*54
1485450075.98,29288,9.44,73920.0,-9.03,-33.77,-32.85,0,*5F
1485450077.22,29289,9.38,73916.5,-9.05,-33.95,-33.27,0,*5D
1485450078.47,29290,9.44,73916.3,-9.05,-33.95,-33.27,0,*55
1485450079.68,29291,9.44,73920.8,-9.05,-34.13,-33.55,0,*58
1485450080.89,29292,9.44,73924.0,-9.05,-33.95,-33.21,0,*51
1485450082.19,29293,9.38,73918.3,-9.03,-33.77,-32.85,0,*55
1485450083.46,29294,9.44,73918.8,-9.03,-33.73,-32.91,0,*53
1485450084.73,29295,9.44,73922.3,-9.05,-33.73,-32.79,0,*52
1485450086.02,29296,9.44,73922.0,-9.03,-33.73,-33.09,0,*51
1485450087.24,29297,9.44,73920.5,-9.05,-33.95,-33.21,0,*54
1485450088.48,29298,9.38,73922.0,-9.03,-34.07,-33.37,0,*56
1485450089.73,29299,9.44,73922.0,-9.03,-34.13,-33.37,0,*52
1485450090.97,29300,9.44,73924.5,-9.05,-34.13,-33.43,0,*56
1485450092.27,29301,9.38,73920.5,-9.03,-34.19,-33.43,0,*5B
1485450093.51,29302,9.44,73922.0,-9.05,-34.19,-33.55,0,*59
1485450094.77,29303,9.44,73922.0,-9.03,-34.31,-33.55,0,*54
1485450096.06,29304,9.38,73920.3,-9.03,-34.31,-33.73,0,*57
1485450097.3,29305,9.44,73922.0,-9.05,-34.19,-33.55,0,*5E
1485450098.58,29306,9.38,73918.8,-9.03,-34.19,-33.61,0,*5C
1485450099.85,29307,9.38,73920.5,-9.05,-34.31,-33.73,0,*52
1485450101.14,29308,9.38,73922.3,-9.03,-34.31,-33.77,0,*5F
1485450102.38,29309,9.38,73916.8,-9.05,-34.19,-33.55,0,*52
1485450103.64,29310,9.44,73922.3,-9.05,-34.31,-33.61,0,*57
1485450104.9,29311,9.38,73920.0,-9.05,-34.31,-33.61,0,*56
1485450106.19,29312,9.38,73918.5,-9.03,-34.31,-33.77,0,*54
1485450107.41,29313,9.38,73920.8,-9.05,-34.13,-33.37,0,*57
1485450108.66,29314,9.38,73920.8,-9.05,-34.13,-33.43,0,*53
1485450109.9,29315,9.38,73918.0,-9.05,-34.31,-33.55,0,*55
1485450111.16,29316,9.38,73920.8,-9.05,-34.31,-33.61,0,*51
1485450112.4,29317,9.38,73920.3,-9.09,-34.35,-33.83,0,*54
1485450113.67,29318,9.44,73924.5,-9.05,-34.31,-33.73,0,*5C
1485450114.93,29319,9.44,73924.5,-9.05,-34.35,-33.77,0,*5D
1485450116.2,29320,9.44,73922.0,-9.07,-34.35,-33.67,0,*54
1485450117.43,29321,9.44,73922.0,-9.07,-34.25,-33.67,0,*54
1485450118.69,29322,9.38,73918.8,-9.07,-34.35,-33.67,0,*56
1485450119.95,29323,9.38,73922.8,-9.07,-34.25,-33.61,0,*50
1485450121.19,29324,9.38,73922.0,-9.09,-33.95,-33.49,0,*5F
1485450122.45,29325,9.38,73918.3,-9.07,-34.35,-33.67,0,*51
1485450123.71,29326,9.44,73922.5,-9.07,-34.25,-33.61,0,*55
1485450124.97,29327,9.38,73922.5,-9.07,-34.13,-33.49,0,*5B
1485450126.23,29328,9.44,73926.8,-9.07,-34.13,-33.49,0,*54
1485450127.47,29329,9.38,73922.3,-9.09,-34.25,-33.77,0,*53
1485450128.71,29330,9.38,73920.0,-9.09,-34.25,-33.77,0,*5B
1485450129.97,29331,9.38,73920.8,-9.07,-34.25,-33.61,0,*53
1485450131.23,29332,9.38,73924.0,-9.07,-34.35,-33.67,0,*57
1485450132.52,29333,9.44,73922.5,-9.07,-34.35,-33.77,0,*57
1485450133.74,29334,9.44,73920.3,-9.09,-34.25,-33.67,0,*5E
1485450135.03,29335,9.44,73924.3,-9.07,-34.19,-33.43,0,*58
1485450136.31,29336,9.44,73926.5,-9.07,-34.19,-33.49,0,*51
1485450137.6,29337,9.38,73918.3,-9.07,-34.19,-33.49,0,*50
1485450138.87,29338,9.44,73922.8,-9.09,-34.01,-33.49,0,*58
1485450140.13,29339,9.38,73918.0,-9.07,-33.95,-33.31,0,*52
1485450141.37,29340,9.44,73924.5,-9.09,-33.95,-33.27,0,*55
1485450142.61,29341,9.38,73918.5,-9.07,-33.67,-33.15,0,*56
1485450143.88,29342,9.44,73924.5,-9.09,-34.01,-33.49,0,*55
1485450145.14,29343,9.44,73920.5,-9.07,-34.13,-33.49,0,*59
1485450146.4,29344,9.44,73926.0,-9.07,-33.77,-33.15,0,*52
1485450147.65,29345,9.38,73922.3,-9.09,-33.95,-33.31,0,*57
1485450148.93,29346,9.44,73920.3,-9.07,-33.77,-33.27,0,*51
1485450150.19,29347,9.44,73922.8,-9.07,-33.77,-33.15,0,*51
1485450151.44,29348,9.44,73924.5,-9.09,-33.83,-33.31,0,*5D
1485450152.7,29349,9.44,73926.8,-9.07,-33.95,-33.31,0,*55
1485450153.96,29350,9.38,73922.3,-9.07,-33.95,-33.49,0,*52
1485450155.25,29351,9.44,73926.0,-9.07,-34.01,-33.49,0,*59
1485450156.53,29352,9.44,73926.0,-9.07,-34.01,-33.61,0,*50
1485450157.79,29353,9.44,73922.3,-9.07,-33.83,-33.27,0,*5E
1485450159.06,29354,9.44,73924.8,-9.07,-33.83,-33.31,0,*5E
1485450160.35,29355,9.44,73922.5,-9.07,-33.77,-33.27,0,*53
1485450161.56,29356,9.38,73920.3,-9.05,-33.95,-33.55,0,*5B
1485450162.8,29357,9.44,73920.0,-9.05,-33.95,-33.43,0,*5D
1485450164.04,29358,9.44,73920.5,-9.05,-33.89,-33.21,0,*5B
1485450165.28,29359,9.38,73920.5,-9.05,-33.37,-32.79,0,*53
1485450166.56,29360,9.38,73922.5,-9.05,-33.73,-33.27,0,*53
1485450167.85,29361,9.38,73920.3,-9.03,-33.73,-33.27,0,*54
1485450169.12,29362,9.44,73926.8,-9.03,-33.73,-33.21,0,*51
1485450170.42,29363,9.38,73922.0,-9.03,-33.73,-33.27,0,*56
1485450171.66,29364,9.38,73922.5,-9.05,-33.89,-33.37,0,*53
1485450172.9,29365,9.38,73922.3,-9.05,-33.89,-33.37,0,*52
1485450174.14,29366,9.44,73922.0,-9.05,-33.61,-33.21,0,*50
1485450175.37,29367,9.44,73926.8,-9.05,-33.61,-32.91,0,*5B
1485450176.67,29368,9.44,73924.5,-9.03,-33.73,-33.27,0,*5D
1485450177.94,29369,9.44,73926.3,-9.05,-33.89,-33.43,0,*5D
1485450179.17,29370,9.38,73920.8,-9.05,-33.89,-33.55,0,*52
1485450180.39,29371,9.38,73922.5,-9.05,-34.07,-33.55,0,*52
1485450181.63,29372,9.38,73922.5,-9.05,-33.95,-33.43,0,*5A
1485450182.89,29373,9.44,73926.8,-9.03,-33.95,-33.61,0,*5D
1485450184.15,29374,9.44,73924.5,-9.03,-34.07,-33.61,0,*56
1485450185.39,29375,9.44,73922.5,-9.03,-34.07,-33.55,0,*50
1485450186.64,29376,9.44,73924.3,-9.05,-33.95,-33.43,0,*5E
1485450187.87,29377,9.44,73926.8,-9.03,-33.95,-33.55,0,*5E
1485450189.14,29378,9.44,73926.3,-9.03,-33.95,-33.43,0,*56
1485450190.35,29379,9.44,73924.3,-9.05,-34.07,-33.55,0,*5A
1485450191.62,29380,9.44,73924.3,-9.03,-34.07,-33.61,0,*5D
1485450192.85,29381,9.38,73920.8,-9.03,-33.95,-33.55,0,*57
1485450194.07,29382,9.44,73924.5,-9.05,-34.13,-33.55,0,*5B
1485450195.31,29383,9.44,73924.0,-9.05,-34.13,-33.77,0,*5A
1485450196.57,29384,9.38,73922.3,-9.05,-34.19,-33.77,0,*57
1485450197.84,29385,9.44,73922.8,-9.03,-34.13,-33.73,0,*5E
1485450199.08,29386,9.38,73920.0,-9.05,-33.77,-33.37,0,*5E
1485450200.32,29387,9.38,73918.3,-9.05,-33.95,-33.43,0,*50
1485450201.54,29388,9.44,73920.8,-9.05,-34.07,-33.55,0,*54
1485450202.78,29389,9.38,73920.5,-9.05,-34.13,-33.73,0,*54
1485450204.05,29390,9.44,73924.8,-9.05,-34.31,-33.77,0,*58
1485450205.33,29391,9.38,73926.0,-9.07,-34.35,-33.77,0,*5F
1485450206.59,29392,9.38,73920.8,-9.07,-34.13,-33.77,0,*58
1485450207.88,29393,9.44,73922.0,-9.07,-34.01,-33.61,0,*5D
1485450209.14,29394,9.38,73920.8,-9.07,-34.19,-33.67,0,*55
1485450210.42,29395,9.38,73920.5,-9.07,-33.61,-32.97,0,*52
1485450211.68,29396,9.44,73926.3,-9.07,-33.83,-33.49,0,*5F
1485450212.95,29397,9.38,73922.0,-9.07,-33.83,-33.43,0,*54
1485450214.22,29398,9.38,73922.0,-9.05,-33.73,-33.27,0,*54
1485450215.43,29399,9.44,73922.5,-9.05,-33.55,-33.21,0,*57
1485450216.7,29400,9.38,73924.8,-9.05,-33.43,-32.85,0,*58
1485450217.94,29401,9.38,73920.5,-9.05,-33.55,-33.09,0,*5B
1485450219.21,29402,9.38,73924.0,-9.03,-33.73,-33.37,0,*57
1485450220.44,29403,9.44,73924.5,-9.05,-33.95,-33.61,0,*5B
1485450221.68,29404,9.38,73924.3,-9.05,-33.95,-33.61,0,*5C
1485450222.95,29405,9.44,73926.0,-9.03,-33.73,-33.37,0,*50
1485450224.18,29406,9.38,73920.0,-9.03,-33.95,-33.55,0,*5F
1485450225.43,29407,9.38,73920.8,-9.05,-33.73,-33.37,0,*54
1485450226.7,29408,9.38,73918.5,-9.05,-33.61,-33.27,0,*59
1485450227.94,29409,9.44,73922.0,-9.05,-33.43,-32.91,0,*54
1485450229.2,29410,9.38,73918.8,-9.05,-33.61,-33.27,0,*50
1485450230.5,29411,9.38,73920.3,-9.03,-33.73,-33.27,0,*54
1485450231.71,29412,9.38,73918.3,-9.05,-33.55,-33.21,0,*53
1485450232.95,29413,9.44,73924.5,-9.05,-33.61,-33.21,0,*55
1485450234.23,29414,9.38,73922.3,-9.03,-33.43,-33.09,0,*5E
1485450235.47,29415,9.38,73920.0,-9.03,-33.55,-32.91,0,*58
1485450236.76,29416,9.38,73920.0,-9.03,-33.43,-33.09,0,*5C
1485450238.02,29417,9.38,73924.0,-9.03,-33.55,-33.27,0,*56
1485450239.26,29418,9.44,73924.0,-9.05,-33.61,-33.21,0,*5E
1485450240.52,29419,9.44,73924.5,-9.05,-33.61,-33.27,0,*59
1485450241.79,29420,9.44,73920.8,-9.03,-33.77,-33.37,0,*53
1485450243.03,29421,9.38,73922.0,-9.03,-33.95,-33.55,0,*5A
1485450244.29,29422,9.38,73922.8,-9.03,-34.07,-33.61,0,*52
1485450245.55,29423,9.38,73922.8,-9.03,-33.89,-33.55,0,*55
1485450246.8,29424,9.38,73920.8,-9.03,-33.95,-33.61,0,*58
1485450248.04,29425,9.38,73922.8,-9.05,-33.95,-33.61,0,*5F
1485450249.27,29426,9.38,73922.8,-9.05,-33.95,-33.61,0,*5C
1485450250.53,29427,9.38,73922.5,-9.03,-33.77,-33.37,0,*54
1485450251.79,29428,9.44,73926.3,-9.03,-33.95,-33.61,0,*54
1485450253.06,29429,9.38,73922.8,-9.03,-34.07,-33.61,0,*59
1485450254.29,29430,9.38,73924.8,-9.05,-34.07,-33.61,0,*57
1485450255.55,29431,9.38,73920.0,-9.03,-33.89,-33.55,0,*56
1485450256.8,29432,9.44,73926.5,-9.05,-34.13,-33.73,0,*53
1485450258.04,29433,9.38,73922.5,-9.05,-34.13,-33.73,0,*52
1485450259.28,29434,9.44,73924.5,-9.05,-34.07,-33.77,0,*54
1485450260.51,29435,9.44,73924.5,-9.05,-33.95,-33.61,0,*5E
1485450261.75,29436,9.38,73920.8,-9.05,-33.89,-33.55,0,*57
1485450262.98,29437,9.38,73922.8,-9.05,-33.95,-33.61,0,*5C
1485450264.22,29438,9.38,73920.3,-9.05,-34.13,-33.73,0,*59
1485450265.46,29439,9.44,73922.3,-9.05,-33.95,-33.61,0,*52
1485450266.72,29440,9.38,73922.5,-9.05,-33.61,-33.27,0,*55
1485450267.97,29441,9.44,73922.0,-9.05,-33.73,-33.37,0,*56
1485450269.23,29442,9.44,73922.5,-9.03,-33.61,-33.21,0,*57
1485450270.49,29443,9.38,73918.5,-9.05,-33.43,-33.09,0,*5A
1485450271.73,29444,9.38,73922.5,-9.03,-33.37,-32.91,0,*58
1485450272.97,29445,9.44,73926.5,-9.05,-33.55,-33.09,0,*5B
1485450274.24,29446,9.44,73926.3,-9.05,-33.61,-33.27,0,*53
1485450275.5,29447,9.44,73922.8,-9.03,-33.61,-33.37,0,*55
1485450276.74,29448,9.44,73926.3,-9.05,-33.55,-33.27,0,*5A
1485450278.02,29449,9.44,73924.0,-9.05,-33.73,-33.27,0,*5F
1485450279.25,29450,9.44,73924.3,-9.05,-33.77,-33.55,0,*56
1485450280.5,29451,9.44,73926.8,-9.05,-33.73,-33.37,0,*57
1485450281.78,29452,9.44,73924.0,-9.05,-33.73,-33.43,0,*57
1485450283.01,29453,9.44,73924.5,-9.05,-33.95,-33.61,0,*5E
1485450284.25,29454,9.44,73924.8,-9.05,-34.07,-33.73,0,*56
1485450285.49,29455,9.44,73924.0,-9.05,-33.77,-33.55,0,*53
1485450286.73,29456,9.44,73926.5,-9.05,-34.07,-33.61,0,*57
1485450287.97,29457,9.38,73922.3,-9.05,-34.07,-33.61,0,*56
1485450289.21,29458,9.38,73918.0,-9.05,-34.07,-33.73,0,*5A
1485450290.45,29459,9.38,73920.3,-9.05,-33.95,-33.73,0,*57
1485450291.69,29460,9.38,73920.3,-9.09,-33.95,-33.61,0,*52
1485450292.95,29461,9.44,73924.3,-9.07,-33.67,-33.31,0,*55
1485450294.21,29462,9.38,73922.8,-9.07,-33.67,-33.31,0,*56
1485450295.47,29463,9.38,73920.3,-9.07,-33.43,-32.91,0,*5A
1485450296.75,29464,9.38,73920.0,-9.05,-33.73,-33.43,0,*52
1485450298.01,29465,9.38,73920.8,-9.07,-33.83,-33.49,0,*54
1485450299.27,29466,9.44,73924.0,-9.07,-33.83,-33.49,0,*57
1485450300.51,29467,9.38,73918.8,-9.05,-33.89,-33.55,0,*53
1485450301.74,29468,9.44,73924.3,-9.07,-33.95,-33.67,0,*52
1485450303.03,29469,9.38,73922.8,-9.07,-33.77,-33.31,0,*5C
1485450304.28,29470,9.44,73924.0,-9.07,-33.43,-33.15,0,*55
1485450305.55,29471,9.44,73924.3,-9.07,-33.67,-33.27,0,*53
1485450306.81,29472,9.38,73920.3,-9.07,-33.83,-33.49,0,*52
1485450308.02,29473,9.38,73920.3,-9.05,-33.55,-33.21,0,*54
1485450309.27,29474,9.44,73924.8,-9.05,-33.37,-32.85,0,*58
1485450310.51,29475,9.44,73924.5,-9.03,-33.37,-33.21,0,*50
1485450311.76,29476,9.38,73920.0,-9.05,-33.37,-32.85,0,*5A
1485450313.02,29477,9.44,73924.3,-9.05,-33.27,-32.85,0,*5A
1485450314.27,29478,9.44,73922.8,-9.05,-33.21,-32.79,0,*50
1485450315.51,29479,9.38,73922.3,-9.05,-33.09,-32.69,0,*5A
1485450316.77,29480,9.44,73924.8,-9.03,-33.43,-33.21,0,*59
1485450318.04,29481,9.38,73922.5,-9.05,-33.43,-33.27,0,*58
1485450319.31,29482,9.38,73922.3,-9.03,-33.55,-33.27,0,*5A
1485450320.61,29483,9.44,73926.3,-9.03,-33.73,-33.43,0,*5D
1485450321.87,29484,9.38,73920.3,-8.99,-33.49,-33.15,0,*52
1485450323.1,29485,9.44,73924.3,-9.03,-33.55,-33.21,0,*5B
1485450324.4,29486,9.38,73920.0,-9.03,-33.73,-33.43,0,*58
1485450325.66,29487,9.38,73920.0,-9.03,-33.61,-33.37,0,*59
1485450326.96,29488,9.38,73922.3,-9.03,-33.73,-33.43,0,*56
1485450328.25,29489,9.38,73922.5,-9.03,-33.89,-33.43,0,*52
1485450329.52,29490,9.38,73918.0,-9.03,-33.73,-33.55,0,*58
1485450330.76,29491,9.44,73920.8,-9.03,-33.37,-32.91,0,*50
1485450332.0,29492,9.44,73922.5,-9.03,-33.37,-32.91,0,*53
1485450333.25,29493,9.44,73924.0,-9.03,-33.21,-32.69,0,*52
1485450334.49,29494,9.38,73922.5,-8.99,-33.37,-33.15,0,*5A
1485450335.75,29495,9.44,73922.5,-9.03,-33.61,-33.37,0,*5A
1485450337.04,29496,9.38,73916.5,-9.03,-33.61,-33.43,0,*5A
1485450338.3,29497,9.38,73922.0,-9.03,-33.77,-33.37,0,*5F
1485450339.59,29498,9.44,73924.0,-9.03,-33.61,-33.27,0,*56
1485450340.85,29499,9.44,73924.0,-9.03,-33.61,-33.37,0,*56
1485450342.14,29500,9.44,73924.3,-9.03,-33.61,-33.43,0,*54
1485450343.43,29501,9.44,73922.5,-9.03,-33.77,-33.61,0,*52
1485450344.72,29502,9.38,73922.8,-8.99,-33.73,-33.49,0,*5D
1485450345.98,29503,9.44,73922.5,-8.99,-33.83,-33.49,0,*53
1485450347.25,29504,9.38,73920.8,-9.03,-33.73,-33.55,0,*54
1485450348.54,29505,9.38,73922.0,-9.03,-33.73,-33.43,0,*52
1485450349.78,29506,9.38,73922.5,-9.03,-33.55,-33.37,0,*56
1485450351.04,29507,9.44,73920.3,-9.03,-33.77,-33.55,0,*53
1485450352.34,29508,9.44,73924.5,-9.03,-33.73,-33.43,0,*5F
1485450353.64,29509,9.38,73918.8,-9.03,-33.73,-33.43,0,*5E
1485450354.94,29510,9.38,73918.3,-9.03,-33.73,-33.43,0,*56
1485450356.17,29511,9.44,73924.8,-9.05,-33.89,-33.55,0,*53
1485450357.44,29512,9.44,73920.8,-9.03,-33.55,-33.27,0,*52
1485450358.7,29513,9.44,73922.0,-9.03,-33.55,-33.27,0,*53
1485450359.97,29514,9.38,73920.3,-9.05,-33.77,-33.43,0,*50
1485450361.25,29515,9.38,73922.8,-9.03,-33.89,-33.61,0,*56
1485450362.53,29516,9.38,73922.0,-9.03,-33.73,-33.37,0,*53
1485450363.76,29517,9.38,73922.0,-9.03,-33.55,-33.21,0,*51
1485450365.03,29518,9.44,73922.8,-9.03,-33.21,-32.79,0,*51
1485450366.3,29519,9.44,73922.3,-9.03,-33.37,-33.09,0,*51
1485450367.59,29520,9.38,73920.0,-9.03,-33.43,-33.27,0,*54
1485450368.88,29521,9.38,73920.3,-9.03,-33.61,-33.43,0,*57
1485450370.14,29522,9.38,73924.3,-9.03,-33.73,-33.55,0,*50
1485450371.38,29523,9.38,73920.8,-9.03,-33.55,-33.21,0,*56
1485450372.65,29524,9.44,73926.8,-9.03,-33.37,-33.27,0,*53
1485450373.89,29525,9.38,73920.3,-9.03,-33.55,-33.37,0,*57
1485450375.18,29526,9.44,73924.3,-9.03,-33.77,-33.43,0,*57
1485450376.42,29527,9.38,73922.5,-9.03,-33.55,-33.37,0,*55
1485450377.72,29528,9.44,73924.0,-9.03,-33.73,-33.43,0,*5D
1485450378.98,29529,9.44,73924.0,-8.99,-33.31,-33.03,0,*5C
1485450380.24,29530,9.38,73922.3,-9.03,-33.43,-33.21,0,*53
1485450381.53,29531,9.44,73926.0,-9.03,-33.27,-32.85,0,*5F
1485450382.8,29532,9.44,73920.8,-9.03,-33.37,-33.09,0,*58
1485450384.06,29533,9.38,73920.3,-8.99,-33.49,-33.15,0,*5F
1485450385.3,29534,9.44,73920.0,-8.99,-33.37,-33.21,0,*56
1485450386.53,29535,9.38,73918.3,-8.99,-33.37,-33.15,0,*50
1485450387.78,29536,9.38,73918.3,-9.03,-33.37,-33.21,0,*56
1485450389.04,29537,9.38,73920.0,-8.99,-33.31,-33.15,0,*54
1485450390.27,29538,9.38,73920.8,-8.99,-33.37,-33.15,0,*5D
1485450391.53,29539,9.44,73920.8,-8.99,-33.49,-33.21,0,*52
1485450392.77,29540,9.38,73920.8,-8.99,-33.37,-33.15,0,*52
1485450394.03,29541,9.44,73920.5,-8.99,-33.55,-33.49,0,*5E
1485450395.26,29542,9.38,73922.5,-8.99,-33.55,-33.37,0,*54
1485450396.53,29543,9.44,73922.0,-8.97,-33.73,-33.49,0,*56
1485450397.8,29544,9.38,73918.5,-8.99,-33.03,-32.75,0,*56
1485450399.06,29545,9.44,73922.5,-8.99,-33.21,-32.85,0,*58
1485450400.32,29546,9.38,73918.5,-8.99,-33.31,-33.15,0,*52
1485450401.58,29547,9.38,73916.0,-8.99,-33.49,-33.21,0,*5B
1485450402.87,29548,9.44,73922.3,-8.99,-33.49,-33.31,0,*55
1485450404.11,29549,9.44,73924.3,-8.99,-33.37,-33.21,0,*5C
1485450405.37,29550,9.38,73922.8,-8.99,-33.55,-33.49,0,*5E
1485450406.61,29551,9.38,73924.0,-8.99,-33.67,-33.37,0,*57
1485450407.82,29552,9.44,73924.8,-8.97,-33.37,-33.21,0,*58
1485450409.08,29553,9.38,73920.5,-8.99,-33.55,-33.31,0,*52
1485450410.31,29554,9.44,73920.5,-8.99,-33.55,-33.37,0,*53
1485450411.57,29555,9.38,73920.3,-8.99,-33.31,-33.21,0,*57
1485450412.81,29556,9.44,73920.3,-8.99,-33.37,-33.21,0,*52
1485450414.1,29557,9.38,73920.3,-8.99,-33.73,-33.49,0,*5D
1485450415.36,29558,9.44,73922.5,-8.99,-33.49,-33.21,0,*55
1485450416.61,29559,9.38,73922.0,-8.97,-33.03,-32.75,0,*54
1485450417.87,29560,9.44,73922.0,-8.99,-33.21,-32.85,0,*5F
1485450419.11,29561,9.38,73920.0,-8.99,-33.37,-33.21,0,*56
1485450420.36,29562,9.38,73920.3,-8.99,-33.55,-33.49,0,*5F
1485450421.65,29563,9.44,73920.8,-8.99,-33.49,-33.31,0,*5C
1485450422.91,29564,9.38,73920.3,-8.99,-33.31,-33.15,0,*52
1485450424.13,29565,9.38,73920.0,-8.97,-33.37,-33.15,0,*5B
1485450425.37,29566,9.38,73922.3,-8.97,-33.21,-32.85,0,*57
1485450426.58,29567,9.38,73918.8,-8.97,-33.37,-33.15,0,*59
1485450427.82,29568,9.38,73918.5,-8.97,-33.31,-33.21,0,*57
1485450429.05,29569,9.38,73920.3,-8.97,-33.31,-33.15,0,*51
1485450430.31,29570,9.38,73916.0,-8.99,-33.15,-32.75,0,*56
1485450431.55,29571,9.44,73922.0,-8.97,-33.15,-32.79,0,*55
1485450432.76,29572,9.38,73920.5,-8.97,-33.21,-33.15,0,*5A
1485450433.97,29573,9.38,73920.3,-8.97,-33.55,-33.37,0,*58
1485450435.23,29574,9.44,73922.8,-8.99,-33.67,-33.49,0,*59
1485450436.49,29575,9.44,73924.5,-8.99,-33.31,-33.15,0,*52
1485450437.71,29576,9.44,73926.3,-8.97,-33.37,-33.21,0,*5E
1485450438.95,29577,9.44,73922.8,-8.97,-33.21,-32.85,0,*57
1485450440.16,29578,9.38,73920.0,-8.97,-33.55,-33.37,0,*53
1485450441.4,29579,9.38,73922.5,-8.97,-33.37,-33.31,0,*50
1485450442.66,29580,9.44,73920.8,-8.97,-32.85,-32.63,0,*58
1485450443.92,29581,9.38,73916.3,-8.99,-33.15,-32.85,0,*57
1485450445.16,29582,9.38,73920.3,-8.97,-33.21,-32.85,0,*5D
1485450446.45,29583,9.38,73920.0,-8.95,-32.97,-32.79,0,*51
1485450447.74,29584,9.44,73920.5,-8.95,-33.09,-32.79,0,*50
1485450449.0,29585,9.38,73918.3,-8.97,-32.97,-32.75,0,*59
1485450450.23,29586,9.38,73918.3,-8.95,-32.91,-32.57,0,*5E
1485450451.48,29587,9.38,73920.5,-8.95,-32.79,-32.57,0,*59
1485450452.75,29588,9.38,73924.0,-8.95,-32.97,-32.69,0,*5B
1485450454.01,29589,9.38,73920.5,-8.93,-33.09,-32.79,0,*5B
1485450455.27,29590,9.44,73926.8,-8.95,-33.15,-33.09,0,*5E
1485450456.5,29591,9.38,73922.3,-8.93,-33.15,-33.09,0,*59
1485450457.71,29592,9.38,73922.3,-8.93,-32.91,-32.69,0,*50
1485450459.0,29593,9.44,73924.5,-8.95,-33.27,-33.09,0,*5C
1485450460.23,29594,9.44,73920.8,-8.93,-33.15,-32.97,0,*5A
1485450461.49,29595,9.38,73920.8,-8.93,-33.27,-33.09,0,*5C
1485450462.75,29596,9.38,73922.3,-8.93,-33.09,-32.79,0,*55
1485450463.97,29597,9.38,73922.5,-8.93,-32.91,-32.69,0,*55
1485450465.23,29598,9.38,73920.3,-8.93,-32.97,-32.79,0,*5D
1485450466.46,29599,9.44,73924.8,-8.93,-33.15,-33.09,0,*51
1485450467.72,29600,9.44,73926.3,-8.93,-33.27,-33.09,0,*53
1485450468.98,29601,9.38,73920.5,-8.93,-33.27,-33.09,0,*52
1485450470.24,29602,9.44,73924.0,-8.93,-33.09,-32.97,0,*5B
1485450471.48,29603,9.44,73924.0,-8.93,-33.27,-33.15,0,*5D
1485450472.74,29604,9.44,73922.0,-8.93,-33.49,-33.31,0,*54
1485450474.03,29605,9.44,73922.8,-8.95,-33.43,-33.31,0,*59
1485450475.29,29606,9.44,73926.3,-8.93,-33.43,-33.31,0,*5C
1485450476.56,29607,9.44,73922.8,-8.93,-33.31,-33.27,0,*5F
1485450477.85,29608,9.38,73920.0,-8.95,-33.43,-33.27,0,*53
1485450479.1,29609,9.44,73922.5,-8.93,-33.61,-33.49,0,*5C
1485450480.39,29610,9.38,73920.3,-8.95,-33.27,-33.27,0,*58
1485450481.65,29611,9.38,73924.0,-8.93,-33.27,-33.09,0,*53
1485450482.89,29612,9.44,73922.8,-8.93,-33.15,-33.09,0,*51
1485450484.12,29613,9.38,73918.8,-8.93,-33.15,-32.97,0,*56
1485450485.35,29614,9.44,73922.3,-8.93,-33.15,-33.09,0,*57
1485450486.61,29615,9.38,73922.0,-8.93,-33.09,-32.79,0,*5D
1485450487.85,29616,9.44,73922.8,-8.93,-32.91,-32.75,0,*52
1485450489.11,29617,9.38,73920.8,-8.91,-33.09,-32.91,0,*5B
1485450490.37,29618,9.44,73920.8,-8.91,-33.03,-32.75,0,*54
1485450491.63,29619,9.38,73922.0,-8.91,-33.09,-32.91,0,*55
1485450492.9,29620,9.38,73920.5,-8.91,-32.85,-32.51,0,*56
1485450494.16,29621,9.44,73926.0,-8.91,-32.63,-32.51,0,*5F
1485450495.39,29622,9.44,73922.3,-8.91,-32.91,-32.69,0,*5A
1485450496.62,29623,9.44,73920.0,-8.91,-32.91,-32.69,0,*5B
1485450497.85,29624,9.38,73922.3,-8.89,-33.03,-32.97,0,*5E
1485450499.09,29625,9.38,73920.0,-8.89,-32.97,-32.69,0,*52
1485450500.33,29626,9.44,73922.0,-8.91,-33.03,-32.69,0,*54
1485450501.57,29627,9.44,73920.8,-8.89,-33.03,-32.85,0,*5E
1485450502.77,29628,9.38,73916.3,-8.89,-33.15,-33.03,0,*59
1485450504.03,29629,9.44,73922.0,-8.89,-32.97,-32.97,0,*5F
1485450505.29,29630,9.44,73920.8,-8.91,-33.03,-32.75,0,*5E
1485450506.53,29631,9.38,73920.0,-8.89,-33.03,-32.85,0,*59
1485450507.79,29632,9.44,73922.3,-8.89,-32.97,-32.85,0,*56
1485450509.0,29633,9.38,73920.0,-8.89,-33.03,-33.03,0,*54
1485450510.22,29634,9.38,73918.3,-8.89,-33.37,-33.37,0,*53